Orbital Elements at Epoch 2459000.5 (2020-May-31.0) TDB
Reference: JPL 21 (heliocentric ecliptic J2000)
Element | Value | Uncertainty (1-sigma) | Units |
e | .1685028064299893 | 5.0084e-08 | |
a | 2.512761925556638 | 9.1162e-09 | au |
q | 2.08935448920992 | 1.2632e-07 | au |
i | 9.074099377732683 | 4.5439e-06 | deg |
node | 153.393952379865 | 2.6102e-05 | deg |
peri | 247.1252715581513 | 2.8865e-05 | deg |
M | 38.02512797838474 | 1.14e-05 | deg |
tp | 2458846.828395877361 (2019-Dec-29.32839588) | 4.5999e-05 | TDB |
period | 1454.874195705468 3.98 | 7.9174e-06 2.168e-08 | d yr |
n | .2474440752765129 | 1.3466e-09 | deg/d |
Q | 2.936169361903355 | 1.0652e-08 | au |
|
| | Orbit Determination Parameters
Additional Information
|